Location: Stockholm
(59.3330°N, 18.0500°E)
Time: 09:53:45
(UTC+01:00)

FENGYUN 1C DEB - Pass Details

Date: 16 December 2023
Orbit: 841 x 915 km, 98.8° (Epoch: 21 February)

Event Time Altitude Azimuth Distance (km) Brightness Sun altitude
Exits shadow 20:08:31 16° 345° (NNW) 2,111 ? -38.1°
Drops below altitude 10° 20:09:31 10° 344° (NNW) 2,494 ? -38.3°
Sets 20:11:55 0° 343° (NNW) 3,443 ? -38.6°
